HULIANWANG DIGUI-43

导读

**HULIANWANG DIGUI-43卫星摘要** HULIANWANG DIGUI-43,即互联网低轨43号卫星,是中国于2025年7月30日发射的低轨卫星互联网组网卫星。该卫星属于中国卫星互联网工程建设序列,将与已发射的多颗同类型卫星组网,为全球用户提供低延迟、广覆盖的高速互联网接入服务,推动天地一体化信息网络建设,标志着中国低轨卫星互联网星座部署持续推进。

基本信息
目录编号:
65046
目录名称:
HULIANWANG DIGUI-43
国际标识:
2025-162D
轨道中心:
EARTH
卫星名称:
HULIANWANG DIGUI-43
卫星全名:
HULIANWANG DIGUI-43
卫星状态:
在轨 (已飞行317 天)
发射日期:
2025-07-30 UTC
国别 :
中国 (CN)
星等 :
--
轨道信息
数据来源 国际轨道数据 AOE轨道数据
星历时间 2026-06-12T14:06:18+0800
13小时前
查看轨道信息
2026-06-11T16:00:00+0800
1天前
查看轨道信息
半长轴 7527.452km 7527.455km
偏心率 0.0000341 0.0000278
轨道倾角 50.000° 49.999°
近地点辐角 133.393° 105.626°
升交点赤经 283.396° 286.700°
平近点角 226.697° 164.025°
近地点 1149.058km 1149.108km
远地点 1149.572km 1149.528km
周期 108.326分钟 108.326分钟
每日圈数 13.293239 13.293232
详细信息
使用方式:
暂无
2D轨道图
3D轨道图
轨道高度分析图
轨道倾角分析图
轨道综合分析图
查看轨道综合分析图